This demonstration page uses our WeatherBlox Daily Observations layout. Learn more.

Left ArrowRight Arrow

Hourly Observations for September 23, 2020

Temp ( °F °C ) Dew Point ( °F °C ) Humidity (%) Winds ( mph kmh ) Pressure ( in mb ) Visibility ( mi km ) Precip ( " mm )
12:15 am 00:15 Clear 55 13 45 7 67 67 Calm 30.03 1017 10 16 0.00 0.00
12:35 am 00:35 Clear 55 13 46 8 72 72 NW 8 13 30.03 1017 10 16 0.00 0.00
12:55 am 00:55 Clear 59 15 45 7 59 59 NW 8 13 30.03 1017 10 16 0.00 0.00
1:15 am 01:15 Clear 55 13 45 7 67 67 NW 8 13 30.03 1017 10 16 0.00 0.00
1:35 am 01:35 Clear 59 15 45 7 59 59 NW 6 9 30.02 1017 10 16 0.00 0.00
1:55 am 01:55 Clear 54 12 46 8 77 77 Calm 30.03 1017 10 16 0.00 0.00
2:15 am 02:15 Clear 55 13 46 8 72 72 NW 5 7 30.03 1017 10 16 0.00 0.00
2:35 am 02:35 Clear 54 12 46 8 77 77 Calm 30.04 1017 10 16 0.00 0.00
2:55 am 02:55 Clear 55 13 46 8 72 72 WSW 3 6 30.03 1017 10 16 0.00 0.00
3:15 am 03:15 Clear 52 11 46 8 82 82 WNW 5 7 30.02 1017 10 16 0.00 0.00
3:35 am 03:35 Clear 50 10 46 8 88 88 NW 6 9 30.03 1017 10 16 0.00 0.00
3:55 am 03:55 Clear 52 11 46 8 82 82 NW 6 9 30.02 1017 10 16 0.00 0.00
4:15 am 04:15 Clear 52 11 46 8 82 82 NW 7 11 30.03 1017 10 16 0.00 0.00
4:35 am 04:35 Clear 54 12 46 8 77 77 NW 6 9 30.03 1017 10 16 0.00 0.00
4:55 am 04:55 Clear 55 13 46 8 72 72 NW 5 7 30.03 1017 10 16 0.00 0.00
5:15 am 05:15 Clear 55 13 46 8 72 72 Calm 30.04 1017 10 16 0.00 0.00
5:35 am 05:35 Clear 52 11 46 8 82 82 Calm 30.05 1018 10 16 0.00 0.00
5:55 am 05:55 Clear 55 13 46 8 72 72 Calm 30.05 1018 10 16 0.00 0.00
6:15 am 06:15 Clear 55 13 46 8 72 72 Calm 30.05 1018 10 16 0.00 0.00
6:35 am 06:35 Clear 54 12 46 8 77 77 Calm 30.05 1018 10 16 0.00 0.00
6:55 am 06:55 Clear 52 11 46 8 82 82 WNW 3 6 30.05 1018 10 16 0.00 0.00
7:15 am 07:15 Sunny 50 10 46 8 88 88 Calm 30.06 1018 10 16 0.00 0.00
7:35 am 07:35 Sunny 50 10 46 8 88 88 Calm 30.07 1018 10 16 0.00 0.00
7:55 am 07:55 Sunny 52 11 48 9 88 88 W 7 11 30.06 1018 10 16 0.00 0.00
8:15 am 08:15 Sunny 59 15 50 10 72 72 WSW 5 7 30.06 1018 10 16 0.00 0.00
8:35 am 08:35 Sunny 59 15 50 10 72 72 WSW 5 7 30.06 1018 10 16 0.00 0.00
8:55 am 08:55 Sunny 61 16 52 11 72 72 W 3 6 30.06 1018 10 16 0.00 0.00
9:15 am 09:15 Sunny 63 17 52 11 68 68 NW 5 7 30.06 1018 10 16 0.00 0.00
9:35 am 09:35 Sunny 64 18 50 10 60 60 NW 7 11 30.05 1018 10 16 0.00 0.00
9:55 am 09:55 Sunny 66 19 52 11 60 60 WNW 12 19 30.05 1018 10 16 0.00 0.00
10:15 am 10:15 Sunny 68 20 52 11 56 56 NW 9 15 30.06 1018 10 16 0.00 0.00
10:35 am 10:35 Sunny 68 20 50 10 53 53 WNW 10 17 30.05 1018 10 16 0.00 0.00
10:55 am 10:55 Sunny 70 21 52 11 53 53 NW 9 15 30.05 1018 10 16 0.00 0.00
11:15 am 11:15 Sunny 70 21 50 10 50 50 WNW 10 17 30.05 1018 10 16 0.00 0.00
11:35 am 11:35 Sunny 72 22 52 11 50 50 W 6 9 30.05 1018 10 16 0.00 0.00
11:55 am 11:55 Sunny 72 22 52 11 50 50 NNW 8 13 30.05 1018 10 16 0.00 0.00
12:15 pm 12:15 Sunny 72 22 52 11 50 50 Calm 30.04 1017 10 16 0.00 0.00
12:35 pm 12:35 Sunny 73 23 54 12 50 50 N 6 9 30.04 1017 10 16 0.00 0.00
12:55 pm 12:55 Sunny 73 23 54 12 50 50 W 7 11 30.03 1017 10 16 0.00 0.00
1:15 pm 13:15 Sunny 73 23 54 12 50 50 WNW 6 9 30.02 1016 10 16 0.00 0.00
1:35 pm 13:35 Sunny 75 24 54 12 47 47 NW 3 6 30.01 1016 10 16 0.00 0.00
1:55 pm 13:55 Sunny 75 24 54 12 47 47 WSW 7 11 29.99 1015 10 16 0.00 0.00
2:15 pm 14:15 Sunny 77 25 54 12 44 44 WSW 6 9 29.98 1015 10 16 0.00 0.00
2:35 pm 14:35 Sunny 79 26 54 12 42 42 WNW 9 15 29.96 1015 10 16 0.00 0.00
2:55 pm 14:55 Sunny 79 26 54 12 42 42 NW 6 9 29.95 1014 10 16 0.00 0.00
3:15 pm 15:15 Sunny 79 26 54 12 42 42 WNW 8 13 29.95 1014 10 16 0.00 0.00
3:35 pm 15:35 Sunny 79 26 54 12 42 42 W 6 9 29.94 1014 10 16 0.00 0.00
3:55 pm 15:55 Sunny 79 26 54 12 42 42 WSW 9 15 29.94 1014 10 16 0.00 0.00
4:15 pm 16:15 Sunny 81 27 54 12 39 39 WSW 7 11 29.93 1014 10 16 0.00 0.00
4:35 pm 16:35 Sunny 79 26 54 12 42 42 WSW 8 13 29.93 1014 10 16 0.00 0.00
4:55 pm 16:55 Sunny 79 26 54 12 42 42 WSW 7 11 29.93 1014 10 16 0.00 0.00
5:15 pm 17:15 Sunny 79 26 54 12 42 42 W 3 6 29.93 1014 10 16 0.00 0.00
5:35 pm 17:35 Sunny 79 26 54 12 42 42 SW 7 11 29.93 1014 10 16 0.00 0.00
5:55 pm 17:55 Sunny 77 25 55 13 47 47 SW 5 7 29.93 1014 10 16 0.00 0.00
6:15 pm 18:15 Sunny 77 25 55 13 47 47 WSW 5 7 29.94 1014 10 16 0.00 0.00
6:35 pm 18:35 Sunny 73 23 55 13 53 53 WSW 6 9 29.95 1014 10 16 0.00 0.00
6:55 pm 18:55 Sunny 73 23 55 13 53 53 SW 7 11 29.96 1014 10 16 0.00 0.00
7:15 pm 19:15 Clear 72 22 55 13 57 57 WSW 5 7 29.96 1015 10 16 0.00 0.00
7:35 pm 19:35 Clear 70 21 55 13 60 60 W 6 9 29.96 1015 10 16 0.00 0.00
7:55 pm 19:55 Clear 70 21 55 13 60 60 WSW 6 9 29.97 1015 10 16 0.00 0.00
8:15 pm 20:15 Clear 70 21 55 13 60 60 W 6 9 29.97 1015 10 16 0.00 0.00
8:35 pm 20:35 Clear 68 20 55 13 64 64 WSW 6 9 29.98 1015 10 16 0.00 0.00
8:55 pm 20:55 Clear 66 19 55 13 68 68 WSW 6 9 29.99 1016 10 16 0.00 0.00
9:15 pm 21:15 Clear 66 19 55 13 68 68 WSW 7 11 29.99 1016 10 16 0.00 0.00
9:35 pm 21:35 Clear 66 19 55 13 68 68 WSW 6 9 30.00 1016 10 16 0.00 0.00
9:55 pm 21:55 Clear 64 18 55 13 73 73 W 6 9 29.99 1016 10 16 0.00 0.00
10:15 pm 22:15 Clear 64 18 55 13 73 73 W 3 6 30.00 1016 10 16 0.00 0.00
10:35 pm 22:35 Clear 64 18 55 13 73 73 WSW 5 7 30.00 1016 10 16 0.00 0.00
10:55 pm 22:55 Clear 63 17 55 13 77 77 Calm 30.01 1016 10 16 0.00 0.00
11:15 pm 23:15 Clear 61 16 55 13 83 83 W 6 9 30.02 1016 10 16 0.00 0.00
11:35 pm 23:35 Clear 61 16 55 13 83 83 NW 3 6 30.02 1016 10 16 0.00 0.00
11:55 pm 23:55 Clear 63 17 55 13 77 77 Calm 30.01 1016 10 16 0.00 0.00

Powered by AerisWeather